Weather Roundup
Issued by NWS Springfield, MO

Home | Current Version | Previous Version | Text Only | Print | Product List | Glossary On
Versions: 1 2 3 4 5 6 7 8 9 10 11 12 13 14 15 16 17 18 19 20 21 22 23 24 25 26 27 28 29 30 31 32 33 34 35 36 37 38 39 40 41 42 43 44 45 46 47 48 49 50
000
NZUS99 KSGF 171907
HRRSGF

HOURLY WEATHER
NATIONAL WEATHER SERVICE SPRINGFIELD MO
100 PM CST WED DEC 17 2014

......SGF CWA......

CITY           SKY/WX    TMP DP  RH WIND       PRES   REMARKS
SPRINGFIELD    CLOUDY    32  25  75 VRB3      30.27F
JOPLIN         CLOUDY    32  26  78 E7        30.28F WCI  26
WEST PLAINS    CLOUDY    38  25  59 SW5       30.26F WCI  34
ROLLA          MOSUNNY   34  22  61 W9        30.26R WCI  27
OSAGE BEACH    CLOUDY    34  19  55 N3        30.29F
BRANSON        CLOUDY    37  27  65 CALM      30.27F

......SURROUNDING SGF CWA......

CITY           SKY/WX    TMP DP  RH WIND       PRES   REMARKS
CHANUTE        CLOUDY    31  26  82 SE7       30.26F WCI  24
PARSONS        CLOUDY    32  28  85 VRB3      30.26F
COFFEYVILLE    CLOUDY    32  28  85 E6        30.25F WCI  26
EMPORIA        CLOUDY    28  24  85 SE7       30.25F WCI  21
GROVE OK       CLOUDY    36  30  80 CALM      30.28F
ROGERS AR      LGT RAIN  35  28  75 E7        30.24F WCI  29
SILOAM SPRINGS CLOUDY    36  25  64 SE3       30.25F
HARRISON AR    CLOUDY    35  26  69 CALM      30.26F
NEAR YELLVILLE CLOUDY    36  25  64 SE3       30.28F

......KANSAS AND MISSOURI......

CITY           SKY/WX    TMP DP  RH WIND       PRES   REMARKS
KANSAS CTY INT CLOUDY    28  19  69 CALM      30.29F
DOWNTOWN KC    CLOUDY    30  19  63 CALM      30.31F
COLUMBIA       SUNNY     33  22  63 W8        30.29R WCI  26
SEDALIA        PTSUNNY   32  21  64 N5        30.30F WCI  27
ST JOSEPH      CLOUDY    28  19  69 N3        30.31F
ST LOUIS       MOSUNNY   38  24  57 N7        30.28F WCI  33
SPIRIT OF STL  SUNNY     38  24  57 CALM      30.27F
KIRKSVILLE     SUNNY     28  20  71 VRB3      30.29F
WICHITA        CLOUDY    34  24  67 E8        30.20F WCI  27
TOPEKA         CLOUDY    28  19  69 E3        30.30F
OLATHE         CLOUDY    28  22  78 CALM      30.27F

......TENNESSEE......

CITY           SKY/WX    TMP DP  RH WIND       PRES   REMARKS
MEMPHIS        CLOUDY    44  32  62 NE3       30.28F
NASHVILLE      CLOUDY    39  30  70 W3        30.26F

......ARKANSAS.......

CITY           SKY/WX    TMP DP  RH WIND       PRES   REMARKS
FAYETTEVILLE   LGT RAIN  35  32  88 E3        30.24F
FT SMITH       RAIN      36  32  85 E12       30.24F FOG     WCI  28
LITTLE ROCK    CLOUDY    40  27  59 N6        30.32F

......OKLAHOMA.......

CITY           SKY/WX    TMP DP  RH WIND       PRES   REMARKS
TULSA          CLOUDY    35  33  92 E5        30.25F WCI  31
PONCA CITY     CLOUDY    35  28  75 SE13      30.21F WCI  26
MCALESTER      RAIN      38  35  89 VRB5      30.26F FOG     WCI  34
OKLAHOMA CITY  LGT RAIN  39  31  72 SE13      30.16F WCI  31

......IOWA............

CITY           SKY/WX    TMP DP  RH WIND       PRES   REMARKS
DES MOINES     PTSUNNY   28  13  53 NW8       30.30F WCI  20

......ILLINOIS........

CITY           SKY/WX    TMP DP  RH WIND       PRES   REMARKS
QUINCY         CLOUDY    24  16  71 NW8       30.29F WCI  15
CHICAGO        CLOUDY    26  17  68 NW14      30.21F WCI  14




USA.gov is the U.S. government's official web portal to all federal, state and local government web resources and services.